Wind_Speed
21 20 21 21 21 21 21 21 22 21 21 20 21 22 22 21 20 21 21 21 20 20 20 19 19 19 19 19 20 20 20 19 19 19 20 20 20 19 19 18 18 18 19 19
23 22 23 23 23 23 23 22 23 22 21 21 22 23 22 21 20 21 21 21 21 21 21 20 20 19 20 20 20 20 20 20 20 20 20 20 19 19 19 18 18 19 19 20
23 23 24 24 23 24 24 24 24 24 22 22 23 23 23 22 22 22 22 22 22 22 22 21 21 21 21 21 21 20 20 20 20 21 20 20 19 19 19 19 19 19 20 19
24 24 25 23 24 24 25 24 25 25 24 24 24 24 24 24 23 23 24 23 23 23 23 22 22 22 21 22 22 21 21 20 20 20 20 20 20 20 20 20 20 20 20 20
27 27 27 25 25 25 26 26 26 27 26 25 25 25 25 25 25 25 25 24 24 24 23 23 23 23 23 22 22 21 21 21 21 21 20 20 20 21 21 21 21 21 20 21
28 29 30 28 27 26 27 28 27 27 27 26 26 26 26 26 26 26 25 25 25 25 25 24 24 24 24 23 23 22 21 21 21 21 20 20 21 21 21 21 21 21 21 22
30 31 31 29 29 28 28 28 27 27 27 27 28 27 26 26 26 26 26 26 26 26 26 26 25 25 24 24 23 23 22 22 22 22 22 22 22 22 22 22 22 22 22 22
30 32 31 29 30 30 30 29 29 29 29 28 28 28 27 27 27 27 27 27 27 27 27 26 26 26 25 25 24 24 23 23 22 22 22 22 22 22 22 22 23 23 23 23
30 31 30 30 31 31 31 31 30 30 30 30 30 30 29 28 27 27 28 28 27 27 27 27 27 26 26 25 25 24 24 24 23 23 23 23 23 23 23 23 23 24 23 24
30 30 30 30 30 30 31 31 31 31 30 30 31 30 30 29 28 28 28 28 27 27 27 26 26 26 26 26 25 25 25 24 24 24 23 23 23 23 23 23 24 24 24 24
31 30 30 30 31 31 31 31 31 32 32 31 32 31 30 30 29 29 30 29 28 28 27 27 27 26 26 26 26 25 25 25 25 25 24 23 24 24 24 24 24 24 25 25
31 31 32 32 32 32 32 32 33 33 33 32 32 32 31 31 31 30 30 30 29 29 28 28 28 27 27 26 26 26 26 25 25 25 25 24 24 24 23 23 24 24 24 25
32 32 32 32 32 32 32 32 32 32 32 32 32 31 31 31 31 31 30 30 30 30 29 29 28 28 28 27 27 27 27 27 27 26 25 26 26 25 24 24 24 24 25 25
31 31 30 30 30 31 31 31 31 31 31 31 31 31 31 31 31 31 31 31 30 30 30 29 29 28 28 28 27 27 27 27 27 27 27 26 26 26 26 26 26 25 25 26
31 31 31 30 31 31 31 31 31 30 30 30 30 29 29 30 30 30 30 30 30 29 29 29 28 28 28 28 28 28 28 28 28 28 28 28 28 28 28 28 28 27 26 26
31 31 30 30 30 30 30 29 29 29 29 29 29 29 29 29 29 29 29 29 29 29 29 30 29 29 29 29 29 29 29 29 29 29 30 29 29 29 29 29 29 28 28 27
30 30 30 30 29 29 29 28 28 28 29 29 29 29 29 29 29 29 29 28 29 29 29 30 30 30 30 30 30 30 30 29 29 29 30 30 29 30 30 30 30 29 28 28
29 29 29 29 30 29 28 28 28 29 30 29 29 29 29 29 29 30 30 29 29 29 29 29 29 29 29 29 28 28 28 29 29 30 30 30 29 29 30 29 29 29 29 28
28 28 28 28 29 29 29 30 30 30 30 30 30 30 30 30 30 30 30 29 29 29 29 29 28 28 28 28 28 28 28 29 29 29 30 30 30 29 29 29 29 29 28 28
27 28 28 29 29 29 29 29 30 31 31 31 30 31 31 31 30 30 29 29 29 30 30 30 29 29 29 29 29 29 29 29 29 29 30 30 29 29 30 29 29 29 29 29
27 27 28 29 29 29 29 29 30 30 30 30 31 31 31 31 31 30 30 29 29 29 29 29 30 30 31 30 30 30 30 30 30 30 30 29 29 30 29 29 29 29 29 29
27 28 28 29 29 29 29 30 29 29 29 30 31 31 31 32 31 31 30 30 30 30 30 30 30 30 31 31 31 31 31 31 30 30 30 29 30 30 30 30 30 30 30 30
28 28 28 29 29 29 29 30 30 30 30 31 31 31 31 31 31 30 30 30 30 30 30 30 30 30 30 30 31 31 30 30 30 30 30 30 30 31 30 31 31 31 31 31
29 28 28 28 28 29 29 30 31 31 31 31 31 31 31 31 30 30 30 30 29 29 29 29 30 30 30 30 31 31 31 30 30 30 30 30 30 31 31 32 32 32 32 31
29 29 29 28 28 29 30 30 30 30 31 31 31 31 30 30 30 30 29 29 29 30 30 29 29 30 30 30 31 31 31 31 31 31 31 31 31 31 31 32 32 32 32 32
28 28 28 29 29 30 30 30 30 31 31 31 31 31 30 30 30 30 30 29 29 29 30 30 30 30 30 30 31 31 31 31 31 31 31 31 31 31 31 32 32 32 31 31
28 28 29 29 30 30 30 31 31 31 31 31 31 31 30 30 30 29 29 30 30 30 30 30 31 31 31 31 31 31 30 31 31 31 31 31 31 31 31 31 31 31 31 31
Wind_Direction
259 263 263 263 265 266 263 263 265 270 271 274 280 283 285 287 288 287 288 289 291 293 294 295 294 292 293 296 296 296 294 293 291 289 289 290 292 290 288 287 286 284 283 282
260 263 265 264 261 263 264 265 268 271 271 272 277 281 283 284 284 285 286 288 290 292 293 294 294 293 293 294 295 296 294 291 290 290 289 290 292 290 288 286 286 285 284 284
261 264 265 266 267 266 267 269 271 272 273 273 275 278 281 281 281 283 284 286 288 290 291 291 291 293 293 294 295 295 295 291 289 289 288 288 289 290 287 286 287 287 284 285
264 264 265 268 268 269 269 270 271 272 273 273 275 277 279 281 282 283 284 285 287 289 289 289 290 291 292 294 294 294 294 293 289 288 286 286 287 289 289 288 287 286 285 285
263 264 266 266 267 269 270 269 271 272 273 273 274 277 277 279 281 282 282 283 285 287 288 289 290 290 290 292 293 293 293 293 290 289 287 285 286 286 287 287 286 285 284 285
262 264 265 267 270 272 271 271 272 273 273 274 273 274 276 279 280 280 281 282 283 285 287 288 289 289 289 290 291 293 292 291 291 290 288 287 287 286 286 286 286 285 284 284
261 263 265 268 269 271 271 273 274 275 274 274 275 276 277 279 280 280 281 282 283 285 287 288 288 288 288 288 289 291 291 290 290 290 288 287 287 286 286 285 285 285 285 284
264 264 265 268 268 268 270 271 272 273 273 273 275 277 278 279 279 280 280 280 281 283 284 286 287 287 287 287 287 288 289 289 289 289 290 287 286 286 286 285 285 286 285 284
266 267 269 269 270 271 271 270 271 272 273 273 274 275 277 278 279 279 280 281 282 283 284 284 285 286 286 286 285 286 287 288 288 289 288 287 287 286 285 286 286 287 286 286
265 266 267 267 269 269 271 272 272 271 271 272 273 275 275 276 278 279 280 281 281 282 283 284 285 285 285 284 283 284 285 286 287 288 287 286 286 287 286 286 287 288 287 286
266 268 266 265 267 268 270 271 269 268 269 270 272 273 274 275 276 278 279 280 281 281 282 283 283 283 283 283 283 284 285 285 287 288 287 288 287 287 287 285 287 288 288 287
267 267 267 267 268 269 270 270 270 269 269 270 272 273 273 274 276 278 279 279 280 280 281 282 283 284 285 284 283 283 284 285 286 288 288 289 288 288 287 287 287 289 288 288
268 268 268 268 268 269 270 270 270 270 269 270 271 272 273 273 275 276 277 278 279 279 279 280 281 283 284 283 283 282 282 284 286 288 287 287 287 287 287 287 289 289 289 288
268 269 268 268 268 268 268 269 270 270 269 270 271 272 273 273 275 276 276 277 277 277 277 277 279 281 282 281 281 282 282 282 283 284 284 284 284 285 287 287 288 289 289 289
267 269 269 268 268 268 268 268 268 269 269 270 271 272 273 274 275 276 276 276 276 276 276 277 278 279 279 280 281 282 282 282 282 281 282 284 284 284 286 287 288 288 288 289
267 269 269 268 269 269 269 268 268 269 269 269 271 273 273 273 275 277 276 276 275 275 276 276 277 278 278 279 280 281 283 282 282 281 282 283 284 284 285 286 287 287 287 288
269 269 268 268 269 270 269 269 269 269 268 269 270 273 274 274 275 276 275 274 274 274 276 276 276 277 278 279 280 282 283 283 282 283 284 284 284 284 285 285 286 286 287 287
271 271 269 268 268 269 268 269 269 269 268 269 271 273 274 275 275 275 274 273 273 274 276 276 276 276 277 279 280 281 282 283 283 285 285 285 285 286 285 284 285 286 286 286
272 270 269 268 268 267 268 270 270 269 269 270 271 272 274 275 276 275 273 273 274 274 274 274 275 276 276 277 278 280 281 281 284 286 286 287 286 286 287 286 285 286 287 287
273 271 270 269 270 269 269 269 270 270 270 270 271 272 274 276 276 275 275 274 274 274 273 273 273 275 275 276 277 278 280 282 285 286 286 287 287 288 288 288 287 286 286 287
274 272 270 270 271 270 270 271 271 271 271 271 272 273 275 276 276 274 274 274 275 275 275 274 274 274 274 275 276 278 281 283 284 285 286 287 287 288 288 289 288 288 288 289
275 274 272 272 272 273 272 271 272 272 272 272 273 273 274 275 275 274 274 275 275 275 275 275 276 275 275 275 276 278 280 282 283 285 286 287 287 287 288 288 289 289 290 290
275 275 274 273 273 273 274 273 273 273 273 274 274 274 274 275 274 274 274 274 275 275 275 275 276 276 275 275 275 277 280 283 284 286 286 286 287 287 287 288 289 289 289 289
275 275 275 274 272 272 274 275 275 274 274 275 274 274 273 272 272 273 274 273 274 275 276 277 275 275 275 276 276 277 279 282 285 286 287 287 287 287 287 288 289 289 288 287
274 274 275 275 275 274 275 276 276 276 276 276 275 275 274 272 271 272 273 273 275 276 277 277 277 276 277 277 278 279 280 281 282 285 286 286 286 287 288 288 288 288 287 286
273 274 275 276 276 276 276 276 277 278 278 276 275 274 273 273 272 271 272 273 276 278 278 278 277 278 279 279 279 279 279 280 281 283 285 286 287 287 287 288 288 287 287 286
273 274 275 275 276 277 278 278 278 278 277 276 275 273 272 272 272 272 273 275 276 278 279 279 278 279 279 279 279 280 281 281 282 282 283 285 286 287 287 288 287 286 286 286
Height
5806 5807 5807 5808 5809 5809 5810 5810 5811 5811 5810 5810 5809 5807 5807 5806 5805 5803 5801 5800 5799 5797 5796 5794 5793 5791 5789 5788 5786 5785 5783 5782 5781 5780 5778 5777 5776 5775 5774 5774 5773 5772 5772 5772
5800 5801 5801 5802 5803 5803 5804 5804 5805 5805 5805 5805 5803 5802 5801 5800 5799 5798 5796 5795 5794 5792 5791 5789 5788 5786 5785 5783 5781 5780 5778 5777 5775 5774 5773 5772 5771 5770 5769 5768 5767 5767 5766 5766
5794 5795 5795 5796 5797 5797 5798 5798 5799 5799 5800 5799 5798 5796 5795 5794 5793 5792 5791 5790 5789 5787 5786 5784 5783 5781 5779 5778 5776 5774 5773 5771 5770 5769 5768 5766 5766 5765 5764 5763 5762 5761 5761 5760
5787 5789 5788 5792 5791 5791 5791 5792 5792 5792 5792 5792 5791 5791 5790 5788 5787 5787 5786 5785 5783 5782 5780 5779 5777 5776 5774 5772 5770 5769 5767 5765 5764 5763 5762 5761 5760 5759 5758 5757 5757 5756 5755 5755
5781 5781 5781 5784 5784 5784 5784 5785 5785 5785 5785 5785 5785 5784 5783 5782 5781 5780 5779 5779 5777 5776 5774 5773 5771 5770 5768 5766 5765 5763 5762 5760 5758 5757 5756 5756 5755 5754 5753 5752 5751 5750 5749 5749
5773 5774 5774 5777 5777 5777 5778 5777 5778 5778 5777 5777 5777 5777 5777 5776 5775 5774 5773 5772 5771 5770 5768 5767 5765 5763 5762 5760 5759 5757 5756 5754 5753 5752 5751 5750 5749 5748 5747 5746 5745 5744 5743 5743
5766 5766 5766 5769 5770 5770 5771 5771 5770 5770 5770 5770 5770 5770 5770 5769 5768 5767 5766 5765 5764 5763 5762 5760 5759 5757 5756 5754 5753 5751 5750 5749 5747 5746 5745 5744 5743 5742 5741 5740 5739 5738 5737 5737
5758 5758 5761 5762 5762 5763 5763 5763 5762 5762 5762 5762 5762 5762 5762 5761 5761 5760 5759 5758 5757 5756 5755 5754 5752 5750 5749 5748 5746 5745 5744 5743 5741 5740 5738 5737 5736 5735 5734 5733 5732 5731 5730 5730
5751 5753 5753 5753 5753 5754 5754 5754 5755 5755 5754 5754 5754 5754 5754 5754 5753 5752 5752 5751 5750 5749 5748 5747 5745 5743 5742 5741 5740 5738 5737 5736 5735 5734 5732 5731 5730 5728 5727 5726 5725 5724 5723 5722
5741 5743 5744 5745 5745 5745 5745 5745 5746 5746 5746 5746 5746 5746 5746 5745 5745 5744 5744 5743 5742 5741 5740 5739 5738 5736 5735 5734 5733 5732 5731 5729 5728 5727 5726 5725 5723 5722 5721 5719 5718 5717 5716 5715
5733 5735 5735 5736 5736 5736 5736 5736 5736 5736 5736 5737 5737 5737 5737 5737 5737 5736 5736 5735 5734 5734 5733 5732 5730 5729 5728 5727 5726 5725 5724 5723 5721 5720 5719 5718 5717 5715 5714 5713 5711 5710 5709 5708
5724 5726 5725 5726 5727 5727 5727 5727 5727 5727 5728 5728 5728 5728 5728 5728 5728 5728 5727 5727 5726 5725 5725 5724 5723 5722 5720 5719 5718 5717 5717 5716 5715 5714 5712 5711 5710 5709 5707 5706 5704 5703 5701 5700
5715 5716 5716 5716 5717 5717 5717 5718 5718 5718 5718 5719 5719 5719 5719 5718 5718 5718 5718 5718 5717 5716 5716 5715 5714 5714 5713 5711 5710 5710 5709 5708 5707 5706 5705 5704 5703 5701 5700 5699 5697 5696 5694 5692
5706 5706 5707 5708 5708 5708 5708 5709 5709 5709 5709 5710 5710 5710 5710 5709 5709 5709 5709 5708 5708 5707 5707 5706 5706 5705 5704 5703 5702 5702 5701 5700 5699 5698 5697 5696 5695 5693 5692 5691 5690 5688 5686 5684
5698 5698 5698 5699 5699 5699 5700 5700 5700 5701 5701 5701 5701 5701 5701 5700 5700 5700 5699 5699 5698 5698 5698 5697 5697 5697 5696 5695 5694 5693 5692 5692 5691 5690 5688 5687 5686 5685 5683 5682 5680 5679 5678 5676
5689 5689 5689 5690 5690 5691 5691 5691 5692 5692 5692 5692 5692 5692 5692 5692 5691 5691 5690 5690 5689 5689 5689 5688 5688 5687 5687 5686 5685 5684 5684 5683 5682 5681 5679 5678 5677 5675 5674 5673 5671 5669 5668 5667
5680 5681 5681 5681 5682 5682 5682 5683 5683 5684 5684 5684 5684 5684 5683 5683 5683 5682 5681 5681 5680 5680 5679 5679 5678 5678 5677 5677 5676 5675 5674 5673 5672 5671 5670 5669 5667 5666 5664 5663 5662 5660 5659 5657
5671 5672 5672 5673 5673 5674 5674 5674 5675 5675 5675 5675 5675 5675 5674 5674 5673 5673 5672 5672 5671 5671 5671 5670 5669 5669 5668 5668 5667 5666 5665 5664 5663 5662 5661 5659 5657 5656 5654 5653 5652 5651 5649 5648
5663 5664 5664 5664 5664 5665 5665 5666 5666 5666 5666 5666 5666 5666 5665 5665 5664 5664 5663 5663 5663 5662 5662 5661 5661 5660 5659 5659 5658 5657 5656 5655 5654 5653 5651 5650 5648 5646 5645 5643 5642 5641 5640 5638
5656 5656 5656 5656 5656 5656 5656 5656 5657 5657 5657 5657 5657 5656 5656 5656 5655 5654 5654 5654 5653 5653 5652 5652 5651 5651 5650 5650 5649 5648 5647 5646 5645 5644 5642 5640 5639 5637 5636 5634 5633 5631 5630 5628
5648 5648 5648 5647 5647 5647 5647 5647 5648 5648 5648 5647 5647 5647 5647 5646 5646 5645 5645 5644 5644 5643 5643 5642 5642 5641 5640 5640 5639 5639 5638 5637 5636 5634 5633 5631 5630 5628 5626 5625 5623 5622 5620 5619
5639 5639 5639 5639 5639 5639 5639 5638 5639 5639 5639 5638 5638 5638 5637 5637 5636 5636 5635 5635 5634 5634 5633 5633 5632 5631 5630 5630 5629 5629 5628 5627 5626 5625 5623 5622 5621 5619 5617 5616 5614 5612 5611 5609
5631 5631 5631 5631 5631 5630 5630 5630 5630 5630 5629 5629 5628 5628 5627 5627 5626 5626 5626 5625 5624 5624 5623 5622 5621 5621 5620 5620 5619 5619 5618 5617 5616 5615 5613 5612 5611 5610 5608 5606 5605 5603 5601 5599
5622 5622 5622 5622 5622 5622 5621 5621 5621 5620 5620 5619 5619 5618 5617 5617 5617 5616 5616 5615 5615 5614 5613 5612 5611 5611 5610 5610 5610 5609 5609 5608 5607 5605 5604 5602 5601 5600 5598 5596 5595 5593 5591 5589
5613 5613 5613 5613 5613 5613 5612 5612 5611 5611 5610 5610 5609 5608 5607 5607 5607 5606 5606 5605 5605 5604 5603 5602 5602 5601 5601 5600 5600 5599 5598 5597 5597 5596 5594 5592 5591 5590 5588 5586 5584 5583 5581 5579
5604 5604 5604 5604 5603 5603 5603 5602 5602 5601 5601 5600 5599 5599 5598 5598 5597 5597 5596 5596 5595 5594 5593 5593 5592 5591 5591 5590 5590 5589 5588 5587 5586 5585 5584 5582 5581 5579 5578 5576 5574 5572 5571 5569
5595 5595 5595 5594 5594 5593 5593 5592 5592 5591 5591 5590 5589 5589 5588 5588 5587 5587 5586 5586 5585 5584 5583 5583 5582 5581 5581 5580 5579 5578 5577 5576 5576 5575 5574 5572 5571 5569 5567 5566 5564 5562 5560 5559